Regional Weather Roundup
Issued by NWS Jackson, KY

Home | Current Version | Previous Version | Graphics & Text | Print | Product List | Glossary On
Versions: 1 2 3 4 5 6 7 8 9 10 11 12 13 14 15 16 17 18 19 20 21 22 23 24 25 26 27 28 29 30 31 32 33 34 35 36 37 38 39 40 41 42 43 44 45 46 47 48 49 50
000
ASUS43 KJKL 300710
RWRJKL

EAST KENTUCKY HOURLY WEATHER ROUNDUP
NATIONAL WEATHER SERVICE JACKSON KY
300 AM EDT FRI SEP 30 2016

NOTE: "FAIR" INDICATES FEW OR NO CLOUDS BELOW 12,000 FEET WITH
NO SIGNIFICANT WEATHER AND/OR OBSTRUCTIONS TO VISIBILITY.

* THESE REPORTS ARE NOT UNDER NWS QUALITY CONTROL AND MAY NOT
  REPORT WEATHER SUCH AS PRECIPITATION AND FOG.

KYZ079-080-083-085-087-088-110-112-115-119-120-300800
...EASTERN KENTUCKY...

CITY           SKY/WX    TMP DP  RH WIND       PRES   REMARKS
JACKSON        FOG       53  53 100 CALM      30.04F VSB 1/4
LONDON         CLOUDY    48  46  93 CALM      30.05S FOG
SOMERSET*      MOCLDY    48  48 100 CALM      30.07R FOG
MONTICELLO*    MOCLDY    48  48 100 W10       30.07S FOG
WILLIAMSBURG*  CLOUDY    45  45 100 CALM      30.06R VSB<1/4
MIDDLESBORO*   CLOUDY    52  51  97 CALM      30.06S
HARLAN APT*    CLOUDY    52  50  93 CALM      30.05F
PIKE CO APT*   CLOUDY    54  54 100 CALM      30.05F FOG
BIG SANDY APT* CLOUDY    55  55 100 CALM      30.05S
MOREHEAD APT*  CLOUDY    55  54  94 CALM      30.05F FOG
ASHLAND*       CLOUDY    59  57  94 CALM      30.02S
$$

KYZ035-036-041-042-044-050-067-078-099-300800
...CENTRAL KENTUCKY...

CITY           SKY/WX    TMP DP  RH WIND       PRES   REMARKS
MT STERLING*   CLOUDY   N/A N/A N/A CALM      30.06S HAZE
FLEMING/MASON* CLOUDY    56  56  98 S3        30.05S FOG
DANVILLE*      MOCLDY    48  48 100 CALM      30.06S FOG
LEXINGTON      CLOUDY    55  53  93 SW3       30.04F
FRANKFORT      CLOUDY    56  53  90 CALM      30.03F
LOUISVILLE     HVY RAIN  57  55  93 CALM      30.04F FOG
LEBANON*         N/A     52  52 100 CALM      30.05F FOG
GLASGOW*       FOG      N/A N/A N/A CALM      30.05F VSB 1/2
BOWLING GREEN  PTCLDY    52  50  93 CALM      30.06F FOG
$$

KYZ091>093-OHZ055-061-077-WVZ005-015-034-035-042-300800
...SOUTHERN OHIO/WEST VIRGINIA...

CITY           SKY/WX    TMP DP  RH WIND       PRES   REMARKS
COVINGTON      CLOUDY    58  57  97 S5        30.02F
COLUMBUS       CLOUDY    61  61 100 E9        30.05S
DAYTON         CLOUDY    58  57  97 N7        30.03F FOG
WILMINGTON     CLEAR     55  55 100 NE7       30.02F
HUNTINGTON     FOG       58  57  97 E5        30.03S VSB 3/4
CHARLESTON     CLOUDY    59  58  96 NE5       30.04S FOG
PINEVILLE*     CLOUDY    56  54  90 MISG      30.09F FOG
BECKLEY        CLOUDY    57  56  96 CALM      30.07S
BLUEFIELD      CLOUDY    56  53  90 VRB5      30.05F
LOGAN CO APT*  CLOUDY    55  55 100 CALM      30.04F FOG
$$

VAZ002-007-008-TNZ017-027-036-066-071-300800
...SOUTHWEST VIRGINIA/EAST TENNESSEE...

CITY           SKY/WX    TMP DP  RH WIND       PRES   REMARKS
WISE*          FOG       52  52 100 N5        30.06F VSB<1/4
JONESVILLE*    CLOUDY    50  50 100 CALM      30.06F
ABINGDON*      LGT RAIN  57  57  97 CALM      30.04F
BRISTOL        MOCLDY    57  55  93 CALM      30.03F
MORRISTOWN*    CLOUDY    55  52  88 CALM      30.03S
SEVIERVILLE*   CLOUDY    57  48  72 CALM      30.03S
KNOXVILLE      PTCLDY    55  47  74 CALM      30.03S
OAK RIDGE      CLEAR     49  46  90 CALM      30.06F
CROSSVILLE     FOG       46  46 100 W5        30.07R VSB 1/4
NASHVILLE      PTCLDY    50  48  93 S3        30.07F
$$

...KEY TO REMARKS...
VSB - VISIBILITY IN MILES
WCI - WIND CHILL INDEX
HX  - HEAT INDEX

$$



USA.gov is the U.S. government's official web portal to all federal, state and local government web resources and services.